Regional Weather Roundup
Issued by NWS Charleston, SC

Home | Current Version | Previous Version | Text Only | Print | Product List | Glossary On
Versions: 1 2 3 4 5 6 7 8 9 10 11 12 13 14 15 16 17 18 19 20 21 22 23 24 25 26 27 28 29 30 31 32 33 34 35 36 37 38 39 40 41 42 43 44 45 46 47 48 49 50
000
ASUS42 KCHS 241328
RWRCHS

REGIONAL WEATHER ROUNDUP
NATIONAL WEATHER SERVICE CHARLESTON SC
900 AM EDT WED AUG 24 2016

NOTE: "FAIR" INDICATES FEW OR NO CLOUDS BELOW 12,000 FEET WITH NO
SIGNIFICANT WEATHER AND/OR OBSTRUCTIONS TO VISIBILITY.

NOT ALL STATIONS ARE QUALITY CONTROLLED. USE DATA WITH CAUTION...
ESPECIALLY DEWPOINT OBSERVATIONS.

SCZ027-030-031-034>040-042>050-241400-
...SOUTHEAST SOUTH CAROLINA...

CITY           SKY/WX    TMP DP  RH WIND       PRES   REMARKS
N CHARLESTON   MOSUNNY   81  69  67 NE9       30.25R
WATERFRONT PRK   N/A     79  73  82 NE8       30.22R
MOUNT PLEASANT FAIR      81  72  74 CALM      30.25S
JOHNS ISLAND   FAIR      82  73  74 NE8       30.25R
PINOPOLIS        N/A     77  72  83 NE9       30.19R
MONCKS CORNER  FAIR      79  68  69 NE7       30.26S
SUMMERVILLE    FAIR      79  73  83 N5        30.27R
BEAUFORT MCAS  MOSUNNY   81  71  71 N6        30.25R
BEAUFORT ARPT  FAIR      81  72  74 N12       30.24S
HILTON HEAD IS MOSUNNY   81  72  74 N9        30.24R
WALTERBORO     SUNNY     82  70  65 E8        30.27S
ALLENDALE      FAIR      79  70  73 VRB6      30.26S

...SOUTHERN MIDLANDS AND PEE DEE...

CITY           SKY/WX    TMP DP  RH WIND       PRES   REMARKS
GEORGETOWN     FAIR      77  70  78 NE7       30.27R
KINGSTREE      FAIR      77  64  65 NE5       30.28S
ORANGEBURG     SUNNY     78  69  73 NE5       30.28R
BARNWELL       NOT AVBL
AIKEN          FAIR      77  68  73 E5        30.32S
MANNING        FAIR      75  68  78 N3        30.28S
COLUMBIA       MOSUNNY   79  68  69 E5        30.28R
SUMTER         SUNNY     76  67  72 NE6       30.27R
FLORENCE       SUNNY     77  65  66 NE3       30.29S
MYRTLE BEACH   SUNNY     79  61  53 NE8       30.28S
N MYRTLE BEACH SUNNY     77  64  64 NE8       30.26S

$$

GAZ063-065-086>088-099>101-113>116-118-119-134>141-150-241400-
...SOUTHEAST GEORGIA...

CITY           SKY/WX    TMP DP  RH WIND       PRES   REMARKS
SAVANNAH ARPT  MOSUNNY   80  71  74 N7        30.24R
HUNTER AAF     SUNNY     81  76  86 VRB3      30.21R
FORT STEWART   PTSUNNY   78  72  83 N5        30.22R
STATESBORO     SUNNY     80  73  77 E3        30.26S
SYLVANIA       SUNNY    N/A N/A N/A E6        30.27R
CLAXTON        FAIR      80  74  81 N3        30.25R

...CSRA...CENTRAL AND FAR SOUTHEAST GEORGIA...

CITY           SKY/WX    TMP DP  RH WIND       PRES   REMARKS
THOMSON        CLOUDY    78  73  83 MISG      30.33S
AUGUSTA-BUSH   PTSUNNY   77  69  76 E3        30.27R
AUGUSTA-DANIEL PTSUNNY   79  68  69 E6        30.29R
SWAINSBORO     CLOUDY    77  70  78 E3        30.28R
VIDALIA        CLOUDY    77  75  94 NE5       30.26R
EASTMAN        PTSUNNY   80  75  84 CALM      30.28S HAZE
HAZLEHURST     PTSUNNY   77  77 100 CALM      30.24S
ALMA           CLOUDY    79  75  87 VRB3      30.24R
WAYCROSS         N/A     82  80  92 E6        30.23S HX  94
JESUP          PTSUNNY   81  79  94 NE3       30.23S
BAXLEY         CLOUDY    81  77  89 E7        30.24S
BRUNSWICK      MOSUNNY   86  75  70 E10       30.22S HX  95
SAINT SIMONS   MOSUNNY   85  71  63 NE9       30.20S HX  90

$$

SCZ027-028-034-036>038-045-046-048>050-GAZ119-141-241400-
...LAKE AND SUPPLEMENTAL COASTAL OBSERVATIONS...

STATION/POSITION TIME  TEMP    WIND        PRES    WAVE   SWELL
                       AIR SEA DIR/SP/G            HT/PER HT/PER/DIR
                 (UTC) (F)     (DEG/KT/KT) (MB)    (FT/S) (FT/S/D)
WINYAH BAY       1200   76      10/  5     1024.0R
LAKE MURRAY      1200   76      90/  9/ 11 1024.7R
ACE BASIN NERRS  1200   75     360/  1     1024.0S
FORT PULASKI     1300   81 86   10/ 10/ 13 1024.1R
SAPELO ISLAND    1300   84      30/  6     1023.0S

$$

ANZ835-935-AMZ111-154-330-350-352-354-370-450-454-472-241400-
...C-MAN AND BUOY OBSERVATIONS...

STATION/POSITION TIME  TEMP    WIND        PRES    WAVE   SWELL
                       AIR SEA DIR/SP/G            HT/PER HT/PER/DIR
                 (UTC) (F)     (DEG/KT/KT) (MB)    (FT/S) (FT/S/D)
BUOY 41004       1250   83 84   50/ 17/ 19 1022.6R   4/ 6   2/ 60/ 7
BUOY 41008       1250   83 85   60/ 12/ 14 1022.7R   3/ 6   2/110/ 6
FOLLY BEACH CMAN 1300   80      20/ 10/ 12 1024.1R
CAPERS NEARSHORE 1308   82 84   60/ 14/ 21 1023.9R
FRIPP NEARSHORE  1308   83 86   40/ 14/ 17 1022.9S


STATION/POSITION TIME  TEMP    WIND        PRES    WAVE   SWELL
                       AIR SEA DIR/SP/G            HT/PER HT/PER/DIR
                 (UTC) (F)     (DEG/KT/KT) (MB)    (FT/S) (FT/S/D)
5E ST. MARYS GA  1301      84                N/A     4/ 5
FRYING PAN BUOY  1300   82 85   30/ 16/ 19 1023.5S
BUOY 41025       1250   81 84   70/  8/ 10 1023.7R   3/ 5   3/ 30/ 5
CAPE LOOKOUT NC  1300   77     360/ 11/ 13 1024.1S
BUOY 41002       1250   82 85   60/ 17/ 19 1021.2R   5/ 5   2/100/11
BUOY 41010       NOT AVBL
ST AUGUSTINE FL  1300   83 83   60/ 13/ 14 1022.4R


$$




USA.gov is the U.S. government's official web portal to all federal, state and local government web resources and services.